Location: Fours
(44.3167°N, 6.7000°E)
Time: 21:49:14
(UTC+00:00)

N. Korean satellite - Pass Details

Date: 02 October 2021
Orbit: 450 x 494 km, 97.3° (Epoch: 28 October)

Event Time Altitude Azimuth Distance (km) Brightness Sun altitude
Rises 04:55:03 0° 11° (NNE) 2,554 10.4 -7.5°
Reaches altitude 10° 04:57:07 10° 11° (NNE) 1,676 9.5 -7.1°
Maximum altitude 05:00:44 86° 285° (WNW) 496 6.6 -6.5°
Drops below altitude 10° 05:04:21 10° 195° (SSW) 1,682 9.2 -5.8°
Sets 05:06:26 0° 195° (SSW) 2,563 10.1 -5.4°
